TimeEST,TemperatureF,Dew PointF,Humidity,Sea Level PressureIn,VisibilityMPH,Wind Direction,Wind SpeedMPH,Gust SpeedMPH,PrecipitationIn,Events,Conditions,WindDirDegrees,DateUTC
12:54 AM,39.9,24.1,53,30.03,10.0,Calm,Calm,-,N/A,,Clear,0,2013-03-05 05:54:00
2:54 AM,36.0,25.0,64,30.02,10.0,Calm,Calm,-,N/A,,Clear,0,2013-03-05 07:54:00
3:54 AM,35.1,26.1,70,29.99,10.0,Calm,Calm,-,N/A,,Clear,0,2013-03-05 08:54:00
4:54 AM,35.1,27.0,72,29.99,10.0,Calm,Calm,-,N/A,,Partly Cloudy,0,2013-03-05 09:54:00
5:54 AM,35.1,26.1,70,29.99,10.0,Calm,Calm,-,N/A,,Partly Cloudy,0,2013-03-05 10:54:00
6:54 AM,35.1,28.0,76,29.98,10.0,Calm,Calm,-,N/A,,Overcast,0,2013-03-05 11:54:00
7:54 AM,41.0,30.2,65,29.96,10.0,SSE,9.2,-,N/A,,Overcast,160,2013-03-05 12:54:00
8:54 AM,42.1,30.9,65,29.96,10.0,SE,4.6,-,N/A,,Overcast,140,2013-03-05 13:54:00
9:54 AM,44.1,36.0,73,29.94,10.0,South,5.8,-,N/A,,Overcast,170,2013-03-05 14:54:00
10:54 AM,48.0,37.9,68,29.92,10.0,South,6.9,-,N/A,,Mostly Cloudy,180,2013-03-05 15:54:00
11:32 AM,46.4,39.2,76,29.92,10.0,South,4.6,-,0.00,,Overcast,170,2013-03-05 16:32:00
11:54 AM,44.1,37.9,79,29.90,10.0,NNW,4.6,-,0.00,,Overcast,330,2013-03-05 16:54:00
12:18 PM,46.4,39.2,76,29.88,10.0,Calm,Calm,-,N/A,,Overcast,0,2013-03-05 17:18:00
12:54 PM,48.9,41.0,74,29.85,10.0,South,5.8,-,N/A,,Overcast,190,2013-03-05 17:54:00
1:15 PM,50.0,42.8,76,29.84,10.0,South,8.1,-,N/A,,Overcast,170,2013-03-05 18:15:00
1:54 PM,51.1,44.1,77,29.80,10.0,South,9.2,-,N/A,,Overcast,180,2013-03-05 18:54:00
2:02 PM,51.8,44.6,76,29.81,10.0,South,11.5,-,N/A,,Overcast,190,2013-03-05 19:02:00
2:49 PM,48.2,42.8,82,29.79,9.0,SSE,6.9,-,0.00,Rain,Light Rain,150,2013-03-05 19:49:00
2:54 PM,48.9,44.1,83,29.79,6.0,SSE,6.9,-,0.00,Rain,Light Rain,150,2013-03-05 19:54:00
3:54 PM,48.9,46.9,93,29.75,5.0,SSE,6.9,-,0.01,,Overcast,150,2013-03-05 20:54:00
4:07 PM,48.2,46.4,93,29.73,5.0,SSE,3.5,-,N/A,,Overcast,160,2013-03-05 21:07:00
4:33 PM,48.2,46.4,93,29.70,6.0,SSE,5.8,-,0.00,Rain,Light Rain,150,2013-03-05 21:33:00
4:54 PM,48.0,45.0,89,29.67,6.0,SE,6.9,-,0.01,Rain,Light Rain,130,2013-03-05 21:54:00
5:18 PM,46.4,44.6,93,29.68,2.5,SSE,8.1,-,0.08,Rain,Heavy Rain,150,2013-03-05 22:18:00
5:44 PM,46.4,44.6,93,29.70,2.5,South,4.6,-,0.27,Rain,Heavy Rain,170,2013-03-05 22:44:00
5:51 PM,46.4,44.6,93,29.70,2.0,SE,3.5,-,0.33,Rain,Heavy Rain,140,2013-03-05 22:51:00
5:54 PM,46.0,45.0,96,29.70,2.0,SE,5.8,-,0.35,Rain,Heavy Rain,130,2013-03-05 22:54:00
6:16 PM,46.4,44.6,93,29.66,2.0,SE,8.1,-,0.18,Rain,Heavy Rain,130,2013-03-05 23:16:00
6:35 PM,46.4,46.4,100,29.68,5.0,WNW,11.5,-,0.26,Rain,Light Rain,290,2013-03-05 23:35:00
6:43 PM,46.4,44.6,93,29.67,2.0,NNW,11.5,-,0.27,Rain,Heavy Rain,340,2013-03-05 23:43:00
6:54 PM,46.9,46.0,97,29.66,2.0,East,4.6,-,0.30,Rain,Light Rain,80,2013-03-05 23:54:00
7:01 PM,46.4,46.4,100,29.67,6.0,ESE,3.5,-,0.00,Rain,Light Rain,110,2013-03-06 00:01:00
7:09 PM,46.4,44.6,93,29.67,3.0,Calm,Calm,-,0.00,,Overcast,0,2013-03-06 00:09:00
7:31 PM,46.4,46.4,100,29.66,3.0,Calm,Calm,-,0.00,,Overcast,0,2013-03-06 00:31:00
7:54 PM,46.0,45.0,96,29.64,3.0,Calm,Calm,-,0.00,,Mostly Cloudy,0,2013-03-06 00:54:00
8:16 PM,44.6,44.6,100,29.64,2.5,Calm,Calm,-,N/A,,Mostly Cloudy,0,2013-03-06 01:16:00
8:19 PM,44.6,42.8,93,29.64,1.5,Calm,Calm,-,N/A,,Mostly Cloudy,0,2013-03-06 01:19:00
8:38 PM,44.6,42.8,93,29.64,0.8,NNW,9.2,-,N/A,,Mostly Cloudy,340,2013-03-06 01:38:00
8:50 PM,44.6,44.6,100,29.64,1.8,Calm,Calm,-,N/A,,Mostly Cloudy,0,2013-03-06 01:50:00
8:52 PM,44.6,44.6,100,29.64,3.0,Calm,Calm,-,N/A,,Mostly Cloudy,0,2013-03-06 01:52:00
8:54 PM,44.1,44.1,100,29.64,4.0,SSE,3.5,-,N/A,,Mostly Cloudy,150,2013-03-06 01:54:00
9:04 PM,44.6,42.8,93,29.65,4.0,Variable,3.5,-,N/A,,Mostly Cloudy,0,2013-03-06 02:04:00
9:11 PM,46.4,39.2,76,29.64,7.0,WNW,11.5,21.9,N/A,,Scattered Clouds,300,2013-03-06 02:11:00
9:54 PM,44.1,32.0,63,29.66,10.0,Variable,5.8,-,N/A,,Clear,0,2013-03-06 02:54:00
10:54 PM,39.9,33.1,77,29.67,10.0,North,8.1,-,0.00,Rain,Light Rain,10,2013-03-06 03:54:00
11:02 PM,39.2,32.0,75,29.68,10.0,North,10.4,17.3,N/A,,Overcast,360,2013-03-06 04:02:00
11:54 PM,36.0,26.1,67,29.69,10.0,NNW,16.1,33.4,N/A,,Overcast,340,2013-03-06 04:54:00